Location: Abraham Lincoln Continuation High School
(33.9711°N, 117.3662°W)
Time: 10:25:42
(UTC+00:00)

Iridium 4 Rocket - Visible Passes

Search period start: 17 January 2021 00:00
Search period end: 27 January 2021 00:00
Orbit: 586 x 903 km, 86.9° (Epoch: 16 January)

Date Brightness Start Highest point End Pass type
(mag) Time Alt. Az. Time Alt. Az. Time Alt. Az.
17 Jan6.002:47:21SSE02:47:21SSE02:36:35NNEvisible
17 Jan6.604:26:59SW04:26:59SW04:16:28NNWvisible
18 Jan5.702:01:42ESE02:01:42ESE01:55:24NEvisible
18 Jan 4.8 03:33:22 10° N 03:41:14 34° SSW 03:44:06 10° SSW visible
19 Jan 3.6 02:50:13 10° N 02:55:45 55° E 03:00:49 10° SSE visible
19 Jan 6.3 04:32:00 10° NW 04:35:00 15° WNW 04:37:53 10° WSW visible
19 Jan 6.7 14:00:39 10° E 14:02:42 12° ENE 14:04:47 10° NE visible
20 Jan 4.6 02:07:54 10° NNE 02:12:14 23° E 02:16:18 10° SE visible
20 Jan 5.0 03:47:14 10° NNW 03:52:15 35° W 03:56:53 10° SSW visible
21 Jan 3.5 03:03:39 10° N 03:09:14 85° W 03:14:18 10° S visible
21 Jan 6.4 14:11:41 10° SE 14:15:49 22° E 14:20:05 10° NNE visible
22 Jan 3.9 02:20:46 10° NNE 02:25:54 39° E 02:30:36 10° SSE visible
22 Jan 5.9 04:01:35 10° NW 04:05:25 20° W 04:09:02 10° SW visible
23 Jan 5.0 01:38:59 10° NE 01:42:16 16° ENE 01:45:23 10° ESE visible
23 Jan 4.5 03:17:22 10° NNW 03:22:34 47° W 03:27:19 10° SSW visible
24 Jan 3.4 02:34:01 10° N 02:39:26 70° E 02:44:20 10° S visible
24 Jan 6.6 04:17:34 10° WNW 04:18:28 10° WNW 04:19:21 10° W visible
24 Jan 6.6 13:42:52 10° ESE 13:46:16 16° ENE 13:49:43 10° NE visible
25 Jan 4.3 01:51:27 10° NNE 01:55:59 28° E 02:00:11 10° SE visible
25 Jan 5.5 03:31:25 10° NNW 03:35:47 26° W 03:39:50 10° SW visible
26 Jan 3.8 02:47:33 10° N 02:52:50 65° W 02:57:36 10° S visible
26 Jan 6.0 13:54:40 10° SE 13:59:26 28° E 14:04:21 10° NNE visible
